• In Russia
  • List of Countries
  • For 7 days
  • Water Temperature
  • Satellite Maps
  • Weather Map
  • Weather Widgets
  • user-avatar
    Login

    Hourly Weather Klagenfurt

    Today, 23 May, Tuesday

    Time Temperature Precipitation Wind Pressure Humidity
    00:00 +10°C° 0.2 mm 1 mps 690 mmHg 94%
    01:00 +8°C° 0 mm 1 mps 689 mmHg 94%
    02:00 +8°C° 0 mm 1 mps 689 mmHg 94%
    03:00 +8°C° 0 mm 1 mps 689 mmHg 93%
    04:00 +8°C° 0 mm 1 mps 689 mmHg 93%
    05:00 +10°C° 0 mm 1 mps 690 mmHg 89%
    06:00 +12°C° 0 mm 1 mps 690 mmHg 85%
    07:00 +14°C° 0 mm 0 mps 691 mmHg 79%
    08:00 +16°C° 0 mm 0 mps 692 mmHg 68%
    09:00 +18°C° 0 mm 0 mps 692 mmHg 57%
    10:00 +23°C° 0 mm 1 mps 693 mmHg 45%
    11:00 +23°C° 0.1 mm 1 mps 693 mmHg 43%
    12:00 +24°C° 0.1 mm 1 mps 692 mmHg 41%
    13:00 +24°C° 0.1 mm 1 mps 692 mmHg 38%
    14:00 +24°C° 0.2 mm 1 mps 692 mmHg 43%
    15:00 +23°C° 0.2 mm 1 mps 692 mmHg 47%
    16:00 +22°C° 0.2 mm 1 mps 692 mmHg 52%
    17:00 +20°C° 0.1 mm 1 mps 691 mmHg 60%
    18:00 +18°C° 0.1 mm 1 mps 691 mmHg 69%
    19:00 +15°C° 0.1 mm 1 mps 691 mmHg 77%
    20:00 +14°C° 0 mm 1 mps 691 mmHg 80%
    21:00 +12°C° 0 mm 1 mps 691 mmHg 83%
    22:00 +10°C° 0 mm 1 mps 691 mmHg 86%
    23:00 +10°C° 0 mm 1 mps 691 mmHg 86%

    Tomorrow, 24 May, Wednesday

    Time Temperature Precipitation Wind Pressure Humidity
    00:00 +10°C° 0 mm 1 mps 691 mmHg 86%
    01:00 +10°C° 0 mm 1 mps 691 mmHg 86%
    02:00 +10°C° 0 mm 1 mps 691 mmHg 86%
    03:00 +9°C° 0 mm 1 mps 690 mmHg 87%
    04:00 +9°C° 0 mm 1 mps 690 mmHg 87%
    05:00 +11°C° 0 mm 1 mps 691 mmHg 82%
    06:00 +13°C° 0 mm 1 mps 691 mmHg 77%
    07:00 +15°C° 0 mm 1 mps 692 mmHg 72%
    08:00 +18°C° 0.1 mm 1 mps 692 mmHg 66%
    09:00 +19°C° 0.1 mm 1 mps 693 mmHg 61%
    10:00 +21°C° 0.1 mm 1 mps 693 mmHg 55%
    11:00 +22°C° 0.2 mm 1 mps 693 mmHg 53%
    12:00 +22°C° 0.2 mm 1 mps 693 mmHg 51%
    13:00 +23°C° 0.2 mm 1 mps 693 mmHg 49%
    14:00 +22°C° 0.6 mm 1 mps 692 mmHg 53%
    15:00 +21°C° 0.6 mm 1 mps 692 mmHg 57%
    16:00 +21°C° 0.6 mm 1 mps 692 mmHg 60%
    17:00 +19°C° 0.3 mm 1 mps 692 mmHg 66%
    18:00 +16°C° 0.3 mm 1 mps 691 mmHg 71%
    19:00 +15°C° 0.3 mm 1 mps 691 mmHg 77%
    20:00 +13°C° 0.1 mm 1 mps 691 mmHg 79%
    21:00 +12°C° 0.1 mm 1 mps 692 mmHg 80%
    22:00 +10°C° 0.1 mm 1 mps 692 mmHg 82%
    23:00 +10°C° 0 mm 1 mps 692 mmHg 84%

    Day after tomorrow, 25 May, Thursday

    Time Temperature Precipitation Wind Pressure Humidity
    00:00 +9°C° 0 mm 1 mps 692 mmHg 85%
    01:00 +8°C° 0 mm 1 mps 691 mmHg 86%
    02:00 +8°C° 0 mm 1 mps 691 mmHg 87%
    03:00 +7°C° 0 mm 1 mps 691 mmHg 88%
    04:00 +7°C° 0 mm 1 mps 691 mmHg 88%
    05:00 +9°C° 0 mm 1 mps 691 mmHg 83%
    06:00 +11°C° 0 mm 1 mps 692 mmHg 77%
    07:00 +13°C° 0 mm 1 mps 692 mmHg 72%
    08:00 +14°C° 0 mm 1 mps 692 mmHg 67%
    09:00 +16°C° 0 mm 1 mps 692 mmHg 63%
    10:00 +18°C° 0 mm 1 mps 692 mmHg 58%
    11:00 +19°C° 0 mm 1 mps 692 mmHg 56%
    12:00 +20°C° 0 mm 1 mps 692 mmHg 54%
    13:00 +20°C° 0 mm 1 mps 692 mmHg 53%
    14:00 +20°C° 0.1 mm 1 mps 692 mmHg 54%
    15:00 +20°C° 0.1 mm 1 mps 691 mmHg 56%
    16:00 +20°C° 0.1 mm 1 mps 691 mmHg 58%
    17:00 +18°C° 0.1 mm 1 mps 691 mmHg 65%
    18:00 +16°C° 0.1 mm 1 mps 690 mmHg 73%
    19:00 +14°C° 0.1 mm 1 mps 690 mmHg 81%
    20:00 +13°C° 0.1 mm 1 mps 690 mmHg 85%
    21:00 +11°C° 0.1 mm 1 mps 690 mmHg 88%
    22:00 +9°C° 0.1 mm 1 mps 690 mmHg 92%
    23:00 +9°C° 0 mm 1 mps 689 mmHg 93%

    26 May, Friday

    Time Temperature Precipitation Wind Pressure Humidity
    00:00 +8°C° 0 mm 1 mps 689 mmHg 93%
    01:00 +8°C° 0 mm 1 mps 689 mmHg 93%
    02:00 +8°C° 0 mm 1 mps 689 mmHg 92%
    03:00 +8°C° 0 mm 1 mps 689 mmHg 91%
    04:00 +8°C° 0 mm 1 mps 689 mmHg 91%
    05:00 +10°C° 0 mm 1 mps 689 mmHg 86%
    06:00 +12°C° 0 mm 1 mps 690 mmHg 81%
    07:00 +14°C° 0 mm 1 mps 690 mmHg 76%
    08:00 +15°C° 0 mm 2 mps 691 mmHg 68%
    09:00 +17°C° 0 mm 2 mps 691 mmHg 60%
    10:00 +18°C° 0 mm 2 mps 691 mmHg 52%
    11:00 +19°C° 0.1 mm 2 mps 691 mmHg 49%
    12:00 +20°C° 0.1 mm 2 mps 691 mmHg 46%
    13:00 +20°C° 0.1 mm 2 mps 691 mmHg 43%
    14:00 +20°C° 0.1 mm 2 mps 691 mmHg 45%
    15:00 +20°C° 0.1 mm 2 mps 691 mmHg 46%
    16:00 +20°C° 0.1 mm 2 mps 690 mmHg 48%
    17:00 +18°C° 0.1 mm 2 mps 690 mmHg 57%
    18:00 +16°C° 0.1 mm 2 mps 690 mmHg 67%
    19:00 +14°C° 0.1 mm 1 mps 690 mmHg 76%
    20:00 +12°C° 0 mm 1 mps 690 mmHg 81%
    21:00 +10°C° 0 mm 1 mps 690 mmHg 87%
    22:00 +8°C° 0 mm 1 mps 690 mmHg 92%
    23:00 +8°C° 0 mm 1 mps 690 mmHg 92%

    27 May, Saturday

    Time Temperature Precipitation Wind Pressure Humidity
    00:00 +7°C° 0 mm 1 mps 690 mmHg 92%
    01:00 +7°C° 0 mm 1 mps 690 mmHg 93%
    02:00 +7°C° 0 mm 1 mps 690 mmHg 93%
    03:00 +6°C° 0 mm 1 mps 690 mmHg 92%
    04:00 +6°C° 0 mm 1 mps 690 mmHg 92%
    05:00 +8°C° 0 mm 1 mps 690 mmHg 85%
    06:00 +11°C° 0 mm 1 mps 691 mmHg 78%
    07:00 +12°C° 0 mm 0 mps 691 mmHg 70%
    08:00 +15°C° 0 mm 1 mps 692 mmHg 61%
    09:00 +18°C° 0 mm 1 mps 692 mmHg 52%
    10:00 +21°C° 0 mm 1 mps 693 mmHg 43%
    11:00 +21°C° 0 mm 1 mps 692 mmHg 43%
    12:00 +21°C° 0 mm 1 mps 692 mmHg 42%
    13:00 +22°C° 0 mm 1 mps 692 mmHg 42%
    14:00 +21°C° 0.1 mm 1 mps 692 mmHg 45%
    15:00 +21°C° 0.1 mm 1 mps 692 mmHg 48%
    16:00 +19°C° 0.1 mm 2 mps 691 mmHg 51%
    17:00 +19°C° 0.1 mm 1 mps 691 mmHg 61%
    18:00 +16°C° 0.1 mm 1 mps 691 mmHg 71%
    19:00 +14°C° 0.1 mm 1 mps 691 mmHg 81%
    20:00 +13°C° 0 mm 1 mps 691 mmHg 85%
    21:00 +11°C° 0 mm 1 mps 692 mmHg 88%
    22:00 +10°C° 0 mm 1 mps 692 mmHg 92%
    23:00 +9°C° 0 mm 1 mps 692 mmHg 92%

    28 May, Sunday

    Time Temperature Precipitation Wind Pressure Humidity
    00:00 +8°C° 0 mm 1 mps 691 mmHg 93%
    01:00 +7°C° 0 mm 1 mps 691 mmHg 93%
    02:00 +7°C° 0 mm 1 mps 691 mmHg 94%
    03:00 +7°C° 0 mm 1 mps 691 mmHg 94%
    04:00 +7°C° 0 mm 1 mps 692 mmHg 94%
    05:00 +9°C° 0 mm 1 mps 692 mmHg 88%
    06:00 +11°C° 0 mm 1 mps 693 mmHg 82%
    07:00 +13°C° 0 mm 1 mps 694 mmHg 75%
    08:00 +15°C° 0 mm 1 mps 694 mmHg 65%
    09:00 +18°C° 0 mm 1 mps 694 mmHg 55%
    10:00 +19°C° 0 mm 2 mps 695 mmHg 44%
    11:00 +20°C° 0 mm 2 mps 695 mmHg 42%
    12:00 +20°C° 0 mm 2 mps 695 mmHg 40%
    13:00 +21°C° 0 mm 2 mps 695 mmHg 38%
    14:00 +21°C° 0 mm 2 mps 694 mmHg 40%
    15:00 +21°C° 0 mm 2 mps 694 mmHg 42%
    16:00 +20°C° 0 mm 2 mps 694 mmHg 44%
    17:00 +18°C° 0 mm 2 mps 694 mmHg 56%
    18:00 +18°C° 0 mm 1 mps 693 mmHg 67%
    19:00 +15°C° 0 mm 1 mps 693 mmHg 78%
    20:00 +12°C° 0 mm 1 mps 693 mmHg 83%
    21:00 +10°C° 0 mm 1 mps 693 mmHg 87%
    22:00 +8°C° 0 mm 1 mps 693 mmHg 92%
    23:00 +8°C° 0 mm 1 mps 693 mmHg 92%
    Show more